AFL1215 UWWW-UUEE

Flight info

Callsign AFL1215
Flight time 1h 32m
Altitude 32000
Route REDMI2Y REDMI T173 BMK T750 OKSUD T787 OTKOL T784 LARNO T291 URIDU L158 DIMGI DIMGI3E
Aircraft B738/M-SDE2E3FGHIRWXY/LB1

Departure

Time 2026-05-05 15:15
Airport Kurumoch International Airport (UWWW)

Arrival

Time 2026-05-05 16:47
Airport Sheremetyevo International Airport (UUEE)
Time Latitude Longitude Altitude Speed Heading
2026-05-05 14:53 53.51135 50.15821 446 ft 0 kts 332°
2026-05-05 15:04 53.51133 50.15823 446 ft 2 kts 332°
2026-05-05 15:04 53.51112 50.15841 446 ft 2 kts 332°
2026-05-05 15:04 53.51091 50.15857 434 ft 4 kts 351°
2026-05-05 15:05 53.51051 50.15830 431 ft 1 kts 62°
2026-05-05 15:05 53.51051 50.15829 431 ft 0 kts 62°
2026-05-05 15:09 53.51052 50.15833 446 ft 1 kts 62°
2026-05-05 15:10 53.51059 50.15856 446 ft 3 kts 62°
2026-05-05 15:10 53.51073 50.15901 440 ft 5 kts 62°
2026-05-05 15:10 53.51095 50.15968 446 ft 7 kts 61°
2026-05-05 15:10 53.51123 50.16051 443 ft 9 kts 60°
2026-05-05 15:11 53.51155 50.16151 435 ft 11 kts 61°
2026-05-05 15:11 53.51193 50.16266 438 ft 12 kts 61°
2026-05-05 15:11 53.51235 50.16397 440 ft 13 kts 61°
2026-05-05 15:11 53.51282 50.16541 446 ft 15 kts 62°
2026-05-05 15:12 53.51337 50.16687 434 ft 15 kts 43°
2026-05-05 15:12 53.51432 50.16674 446 ft 14 kts 340°
2026-05-05 15:12 53.51526 50.16619 446 ft 15 kts 341°
2026-05-05 15:12 53.51625 50.16561 434 ft 15 kts 340°
2026-05-05 15:13 53.51728 50.16533 436 ft 15 kts
2026-05-05 15:13 53.51802 50.16649 438 ft 15 kts 64°
2026-05-05 15:13 53.51827 50.16813 449 ft 14 kts 88°
2026-05-05 15:13 53.51760 50.16907 450 ft 14 kts 160°
2026-05-05 15:14 53.51754 50.16910 450 ft 0 kts 161°
2026-05-05 15:14 53.51747 50.16915 450 ft 12 kts 161°
2026-05-05 15:14 53.51378 50.17132 449 ft 98 kts 160°
2026-05-05 15:14 53.50488 50.17649 474 ft 166 kts 163°
2026-05-05 15:15 53.49282 50.18322 951 ft 199 kts 163°
2026-05-05 15:15 53.47912 50.19108 1657 ft 212 kts 161°
2026-05-05 15:15 53.46581 50.19863 1844 ft 199 kts 163°
2026-05-05 15:15 53.45116 50.20670 1957 ft 241 kts 162°
2026-05-05 15:16 53.43431 50.21621 2375 ft 264 kts 161°
2026-05-05 15:16 53.41730 50.22640 3490 ft 253 kts 166°
2026-05-05 15:16 53.40043 50.22561 4560 ft 241 kts 205°
2026-05-05 15:16 53.38796 50.20807 5455 ft 239 kts 240°
2026-05-05 15:17 53.38387 50.18150 6153 ft 243 kts 265°
2026-05-05 15:17 53.38154 50.15325 6874 ft 246 kts 258°
2026-05-05 15:17 53.37739 50.12520 7593 ft 250 kts 254°
2026-05-05 15:17 53.37277 50.09701 8286 ft 253 kts 264°
2026-05-05 15:18 53.37488 50.06808 8966 ft 253 kts 295°
2026-05-05 15:18 53.38511 50.04451 9683 ft 253 kts 322°
2026-05-05 15:18 53.40042 50.03021 10347 ft 254 kts 340°
2026-05-05 15:18 53.41718 50.02006 11023 ft 257 kts 341°
2026-05-05 15:19 53.43401 50.01032 11668 ft 260 kts 341°
2026-05-05 15:19 53.45114 50.00038 12359 ft 262 kts 341°
2026-05-05 15:19 53.46851 49.99018 13047 ft 265 kts 341°
2026-05-05 15:19 53.48600 49.97978 13725 ft 268 kts 341°
2026-05-05 15:20 53.50362 49.96923 14337 ft 270 kts 340°
2026-05-05 15:20 53.52144 49.95849 14965 ft 272 kts 340°
2026-05-05 15:20 53.53931 49.94770 15580 ft 274 kts 340°
2026-05-05 15:20 53.55734 49.93680 16179 ft 277 kts 340°
2026-05-05 15:21 53.57606 49.92547 16403 ft 296 kts 340°
2026-05-05 15:21 53.59615 49.91329 16566 ft 315 kts 340°
2026-05-05 15:21 53.61713 49.90056 16716 ft 334 kts 340°
2026-05-05 15:21 53.63969 49.88686 16861 ft 352 kts 340°
2026-05-05 15:22 53.66338 49.87245 16990 ft 370 kts 340°
2026-05-05 15:22 53.68820 49.85734 17150 ft 385 kts 340°
2026-05-05 15:22 53.71364 49.84185 17573 ft 392 kts 340°
2026-05-05 15:22 53.73941 49.82612 18172 ft 394 kts 340°
2026-05-05 15:23 53.76463 49.80942 18695 ft 395 kts 332°
2026-05-05 15:23 53.78632 49.78108 19208 ft 397 kts 313°
2026-05-05 15:23 53.80218 49.74296 19750 ft 399 kts 297°
2026-05-05 15:23 53.81259 49.69917 20265 ft 402 kts 291°
2026-05-05 15:24 53.82197 49.65450 20732 ft 405 kts 290°
2026-05-05 15:24 53.83125 49.60924 21190 ft 407 kts 290°
2026-05-05 15:24 53.84059 49.56387 21657 ft 409 kts 291°
2026-05-05 15:24 53.85014 49.51808 22134 ft 412 kts 291°
2026-05-05 15:25 53.85967 49.47281 22578 ft 414 kts 291°
2026-05-05 15:25 53.86942 49.42674 23021 ft 416 kts 291°
2026-05-05 15:25 53.87925 49.38043 23460 ft 418 kts 291°
2026-05-05 15:25 53.88913 49.33378 23815 ft 421 kts 291°
2026-05-05 15:26 53.89904 49.28697 24242 ft 421 kts 291°
2026-05-05 15:26 53.90891 49.24015 24595 ft 423 kts 291°
2026-05-05 15:26 53.91883 49.19302 24881 ft 426 kts 291°
2026-05-05 15:26 53.92881 49.14548 25173 ft 429 kts 290°
2026-05-05 15:27 53.93884 49.09761 25488 ft 432 kts 290°
2026-05-05 15:27 53.95004 49.05087 25773 ft 433 kts 299°
2026-05-05 15:27 53.96582 49.00720 26072 ft 435 kts 304°
2026-05-05 15:27 53.98276 48.96437 26363 ft 437 kts 304°
2026-05-05 15:28 53.99990 48.92152 26635 ft 440 kts 304°
2026-05-05 15:28 54.01706 48.87818 26906 ft 443 kts 304°
2026-05-05 15:28 54.03417 48.83430 27201 ft 444 kts 303°
2026-05-05 15:28 54.05113 48.79020 27545 ft 445 kts 303°
2026-05-05 15:29 54.06798 48.74598 27913 ft 445 kts 302°
2026-05-05 15:29 54.08470 48.70183 28291 ft 444 kts 302°
2026-05-05 15:29 54.10148 48.65741 28653 ft 444 kts 302°
2026-05-05 15:29 54.11821 48.61303 29006 ft 445 kts 302°
2026-05-05 15:30 54.13492 48.56864 29367 ft 445 kts 302°
2026-05-05 15:30 54.15161 48.52425 29732 ft 444 kts 302°
2026-05-05 15:30 54.16827 48.47987 30055 ft 444 kts 302°
2026-05-05 15:30 54.18473 48.43593 30372 ft 444 kts 301°
2026-05-05 15:31 54.20126 48.39177 30862 ft 439 kts 301°
2026-05-05 15:31 54.21760 48.34802 31264 ft 436 kts 301°
2026-05-05 15:31 54.23391 48.30428 31531 ft 437 kts 301°
2026-05-05 15:31 54.25029 48.26028 31770 ft 438 kts 301°
2026-05-05 15:32 54.26667 48.21609 31878 ft 441 kts 301°
2026-05-05 15:32 54.29848 48.12604 31887 ft 442 kts 300°
2026-05-05 15:33 54.32931 48.03659 31873 ft 436 kts 300°
2026-05-05 15:33 54.36022 47.94692 31891 ft 436 kts 299°
2026-05-05 15:34 54.39113 47.85731 31888 ft 437 kts 299°
2026-05-05 15:34 54.39920 47.83390 31881 ft 437 kts 299°
2026-05-05 15:35 54.40717 47.81076 31881 ft 433 kts 299°
2026-05-05 15:35 54.42045 47.77219 31863 ft 420 kts 299°
2026-05-05 15:36 54.45008 47.68582 31886 ft 427 kts 299°
2026-05-05 15:36 54.48057 47.59659 31894 ft 438 kts 299°
2026-05-05 15:37 54.51155 47.50561 31880 ft 441 kts 299°
2026-05-05 15:37 54.54248 47.41448 31871 ft 440 kts 299°
2026-05-05 15:38 54.57330 47.32334 31874 ft 440 kts 299°
2026-05-05 15:38 54.60400 47.23217 31868 ft 439 kts 299°
2026-05-05 15:39 54.63446 47.14137 31881 ft 438 kts 298°
2026-05-05 15:39 54.66498 47.05015 31882 ft 437 kts 298°
2026-05-05 15:40 54.69492 46.95954 31871 ft 436 kts 298°
2026-05-05 15:40 54.72454 46.86833 31866 ft 435 kts 298°
2026-05-05 15:41 54.75408 46.77712 31868 ft 433 kts 298°
2026-05-05 15:41 54.78348 46.68616 31869 ft 432 kts 298°
2026-05-05 15:42 54.81283 46.59521 31872 ft 432 kts 298°
2026-05-05 15:42 54.84792 46.51021 31870 ft 433 kts 307°
2026-05-05 15:43 54.88547 46.42936 31863 ft 433 kts 307°
2026-05-05 15:43 54.92311 46.34765 31864 ft 433 kts 306°
2026-05-05 15:44 54.96043 46.26535 31865 ft 433 kts 306°
2026-05-05 15:44 54.99757 46.18270 31861 ft 433 kts 306°
2026-05-05 15:45 55.03465 46.09984 31857 ft 433 kts 306°
2026-05-05 15:45 55.07166 46.01686 31859 ft 433 kts 306°
2026-05-05 15:46 55.10845 45.93412 31851 ft 433 kts 306°
2026-05-05 15:46 55.14533 45.85089 31865 ft 433 kts 306°
2026-05-05 15:47 55.18222 45.76736 31847 ft 433 kts 306°
2026-05-05 15:47 55.21906 45.68367 31844 ft 432 kts 305°
2026-05-05 15:48 55.25546 45.60068 31842 ft 432 kts 305°
2026-05-05 15:48 55.29195 45.51722 31839 ft 431 kts 305°
2026-05-05 15:49 55.32839 45.43360 31852 ft 430 kts 305°
2026-05-05 15:49 55.35862 45.36398 31837 ft 429 kts 305°
2026-05-05 15:50 55.40067 45.26683 31828 ft 428 kts 305°
2026-05-05 15:50 55.43063 45.19737 31826 ft 428 kts 304°
2026-05-05 15:51 55.46657 45.11379 31827 ft 427 kts 304°
2026-05-05 15:51 55.50238 45.03025 31844 ft 426 kts 304°
2026-05-05 15:52 55.53811 44.94663 31820 ft 426 kts 304°
2026-05-05 15:52 55.55397 44.90271 31812 ft 422 kts 293°
2026-05-05 15:52 55.56466 44.85476 31829 ft 419 kts 285°
2026-05-05 15:53 55.57316 44.75412 31824 ft 416 kts 271°
2026-05-05 15:53 55.57529 44.65166 31814 ft 417 kts 271°
2026-05-05 15:54 55.57746 44.54898 31816 ft 419 kts 271°
2026-05-05 15:54 55.57987 44.44568 31837 ft 420 kts 271°
2026-05-05 15:55 55.58229 44.34252 31819 ft 420 kts 271°
2026-05-05 15:55 55.58465 44.23926 31821 ft 420 kts 271°
2026-05-05 15:56 55.58690 44.13644 31816 ft 420 kts 271°
2026-05-05 15:56 55.58906 44.03331 31819 ft 419 kts 271°
2026-05-05 15:57 55.59116 43.93017 31819 ft 419 kts 271°
2026-05-05 15:57 55.59423 43.82735 31805 ft 419 kts 278°
2026-05-05 15:58 55.61084 43.72908 31834 ft 422 kts 292°
2026-05-05 15:58 55.63971 43.63810 31818 ft 425 kts 298°
2026-05-05 15:59 55.66980 43.54778 31820 ft 424 kts 297°
2026-05-05 15:59 55.69942 43.45721 31814 ft 424 kts 297°
2026-05-05 16:00 55.72858 43.36696 31814 ft 424 kts 297°
2026-05-05 16:00 55.75789 43.27591 31831 ft 424 kts 297°
2026-05-05 16:01 55.78583 43.18378 31817 ft 422 kts 289°
2026-05-05 16:01 55.80025 43.08370 31818 ft 417 kts 275°
2026-05-05 16:02 55.80583 42.98094 31817 ft 417 kts 274°
2026-05-05 16:02 55.81125 42.87906 31819 ft 416 kts 274°
2026-05-05 16:03 55.81688 42.77611 31816 ft 416 kts 274°
2026-05-05 16:03 55.82247 42.67447 31821 ft 416 kts 274°
2026-05-05 16:04 55.82804 42.57204 31816 ft 416 kts 274°
2026-05-05 16:04 55.83353 42.46951 31812 ft 416 kts 274°
2026-05-05 16:05 55.83893 42.36692 31819 ft 416 kts 274°
2026-05-05 16:05 55.84422 42.26484 31823 ft 417 kts 274°
2026-05-05 16:06 55.84947 42.16185 31816 ft 417 kts 274°
2026-05-05 16:06 55.85464 42.05880 31819 ft 418 kts 274°
2026-05-05 16:07 55.85970 41.95629 31822 ft 418 kts 274°
2026-05-05 16:07 55.86472 41.85292 31829 ft 419 kts 274°
2026-05-05 16:08 55.86800 41.74938 31816 ft 418 kts 268°
2026-05-05 16:08 55.86483 41.64596 31812 ft 418 kts 266°
2026-05-05 16:09 55.86105 41.54273 31815 ft 417 kts 266°
2026-05-05 16:09 55.85758 41.44038 31819 ft 417 kts 266°
2026-05-05 16:10 55.85422 41.33711 31821 ft 417 kts 266°
2026-05-05 16:10 55.85082 41.23384 31827 ft 417 kts 266°
2026-05-05 16:11 55.84735 41.13069 31835 ft 417 kts 266°
2026-05-05 16:12 55.84016 40.92542 31818 ft 416 kts 266°
2026-05-05 16:13 55.83074 40.66939 31822 ft 414 kts 266°
2026-05-05 16:13 55.82678 40.56773 31824 ft 414 kts 266°
2026-05-05 16:14 55.82258 40.46508 31409 ft 415 kts 266°
2026-05-05 16:14 55.81837 40.36413 30577 ft 404 kts 266°
2026-05-05 16:15 55.81420 40.26548 29644 ft 396 kts 266°
2026-05-05 16:15 55.81005 40.16911 28715 ft 386 kts 266°
2026-05-05 16:16 55.80594 40.07511 27841 ft 376 kts 265°
2026-05-05 16:16 55.80185 39.98337 26950 ft 369 kts 265°
2026-05-05 16:17 55.79781 39.89373 26094 ft 363 kts 265°
2026-05-05 16:17 55.79578 39.84952 25953 ft 352 kts 265°
2026-05-05 16:18 55.79133 39.76484 25568 ft 337 kts 263°
2026-05-05 16:18 55.78856 39.72307 25398 ft 345 kts 263°
2026-05-05 16:18 55.78264 39.63544 24980 ft 364 kts 263°
2026-05-05 16:19 55.77965 39.59078 24769 ft 362 kts 263°
2026-05-05 16:19 55.77673 39.54705 24556 ft 359 kts 263°
2026-05-05 16:19 55.77090 39.45958 24116 ft 354 kts 263°
2026-05-05 16:20 55.76507 39.37350 23784 ft 346 kts 263°
2026-05-05 16:20 55.75913 39.28883 23590 ft 349 kts 263°
2026-05-05 16:21 55.75301 39.20239 23410 ft 354 kts 263°
2026-05-05 16:22 55.74384 39.07397 23110 ft 349 kts 262°
2026-05-05 16:22 55.73769 38.98877 22928 ft 347 kts 262°
2026-05-05 16:23 55.73371 38.90336 22504 ft 353 kts 273°
2026-05-05 16:23 55.73606 38.85985 22180 ft 353 kts 275°
2026-05-05 16:23 55.74120 38.77460 21476 ft 345 kts 275°
2026-05-05 16:24 55.74349 38.73225 21122 ft 343 kts 274°
2026-05-05 16:24 55.74562 38.69036 20773 ft 339 kts 274°
2026-05-05 16:24 55.74960 38.60796 20097 ft 330 kts 274°
2026-05-05 16:25 55.75438 38.56809 19868 ft 333 kts 289°
2026-05-05 16:25 55.77940 38.49734 19833 ft 339 kts 303°
2026-05-05 16:25 55.79312 38.46418 19816 ft 333 kts 302°
2026-05-05 16:26 55.81942 38.39888 19810 ft 315 kts 301°
2026-05-05 16:26 55.84522 38.33639 19398 ft 314 kts 304°
2026-05-05 16:27 55.85863 38.30584 19109 ft 313 kts 304°
2026-05-05 16:27 55.87205 38.27533 18841 ft 313 kts 304°
2026-05-05 16:27 55.88543 38.24477 18533 ft 312 kts 303°
2026-05-05 16:27 55.89871 38.21430 18241 ft 311 kts 303°
2026-05-05 16:28 55.91192 38.18386 17915 ft 309 kts 303°
2026-05-05 16:28 55.92498 38.15369 17592 ft 306 kts 303°
2026-05-05 16:28 55.93787 38.12382 17284 ft 302 kts 303°
2026-05-05 16:28 55.95047 38.09459 17003 ft 298 kts 303°
2026-05-05 16:29 55.96306 38.06535 16717 ft 295 kts 303°
2026-05-05 16:29 55.97556 38.03628 16438 ft 293 kts 303°
2026-05-05 16:29 55.98791 38.00750 16160 ft 290 kts 303°
2026-05-05 16:29 55.99997 37.97882 15889 ft 286 kts 298°
2026-05-05 16:30 56.00736 37.94664 15702 ft 276 kts 280°
2026-05-05 16:30 56.01097 37.91301 15535 ft 277 kts 278°
2026-05-05 16:30 56.01438 37.87872 15370 ft 283 kts 278°
2026-05-05 16:30 56.01786 37.84442 15191 ft 285 kts 278°
2026-05-05 16:31 56.02178 37.80933 15026 ft 284 kts 284°
2026-05-05 16:31 56.03106 37.77837 14805 ft 290 kts 304°
2026-05-05 16:31 56.04617 37.75370 14432 ft 303 kts 323°
2026-05-05 16:31 56.06528 37.73664 14093 ft 308 kts 329°
2026-05-05 16:32 56.08487 37.72085 13716 ft 309 kts 329°
2026-05-05 16:32 56.10450 37.70490 13295 ft 309 kts 329°
2026-05-05 16:32 56.12405 37.68882 12893 ft 309 kts 329°
2026-05-05 16:32 56.14299 37.67143 12559 ft 303 kts 324°
2026-05-05 16:33 56.16107 37.65225 12243 ft 299 kts 322°
2026-05-05 16:33 56.17854 37.63321 11932 ft 296 kts 322°
2026-05-05 16:33 56.19609 37.61412 11636 ft 293 kts 322°
2026-05-05 16:33 56.21352 37.59532 11343 ft 290 kts 323°
2026-05-05 16:34 56.23081 37.57680 11050 ft 288 kts 323°
2026-05-05 16:34 56.24797 37.55847 10760 ft 286 kts 323°
2026-05-05 16:34 56.26503 37.54026 10473 ft 283 kts 323°
2026-05-05 16:34 56.28191 37.52215 10208 ft 280 kts 321°
2026-05-05 16:35 56.29522 37.49880 9913 ft 266 kts 296°
2026-05-05 16:35 56.30117 37.46834 9786 ft 251 kts 275°
2026-05-05 16:35 56.30108 37.43723 9472 ft 248 kts 261°
2026-05-05 16:35 56.29553 37.40771 9104 ft 250 kts 243°
2026-05-05 16:36 56.28637 37.38141 8863 ft 247 kts 238°
2026-05-05 16:36 56.27670 37.35591 8665 ft 251 kts 238°
2026-05-05 16:36 56.26640 37.33001 8405 ft 257 kts 231°
2026-05-05 16:36 56.25724 37.31645 8222 ft 261 kts 214°
2026-05-05 16:37 56.23392 37.30461 7886 ft 268 kts 188°
2026-05-05 16:37 56.22125 37.30680 7692 ft 274 kts 174°
2026-05-05 16:37 56.20304 37.31532 7434 ft 273 kts 171°
2026-05-05 16:37 56.18534 37.32824 7132 ft 282 kts 149°
2026-05-05 16:38 56.17240 37.35510 6868 ft 292 kts 119°
2026-05-05 16:38 56.16822 37.39074 6560 ft 297 kts 85°
2026-05-05 16:38 56.17266 37.42689 6315 ft 294 kts 73°
2026-05-05 16:38 56.17832 37.46216 6001 ft 294 kts 73°
2026-05-05 16:39 56.18379 37.49705 5694 ft 293 kts 73°
2026-05-05 16:39 56.18918 37.53232 5391 ft 293 kts 74°
2026-05-05 16:39 56.19260 37.56824 5081 ft 293 kts 95°
2026-05-05 16:39 56.18703 37.60238 4915 ft 279 kts 124°
2026-05-05 16:40 56.17540 37.62892 4784 ft 265 kts 140°
2026-05-05 16:40 56.16257 37.65210 4649 ft 258 kts 140°
2026-05-05 16:40 56.15006 37.67468 4525 ft 252 kts 140°
2026-05-05 16:40 56.13781 37.69694 4397 ft 249 kts 140°
2026-05-05 16:41 56.12579 37.71886 4281 ft 242 kts 140°
2026-05-05 16:41 56.11430 37.73991 4178 ft 230 kts 140°
2026-05-05 16:41 56.10327 37.75987 4052 ft 221 kts 144°
2026-05-05 16:41 56.09040 37.77161 3911 ft 205 kts 181°
2026-05-05 16:42 56.07671 37.76937 3802 ft 195 kts 200°
2026-05-05 16:42 56.06375 37.76233 3654 ft 193 kts 203°
2026-05-05 16:42 56.05108 37.75491 3514 ft 190 kts 203°
2026-05-05 16:42 56.03857 37.74761 3351 ft 188 kts 202°
2026-05-05 16:43 56.02626 37.73977 3181 ft 184 kts 212°
2026-05-05 16:43 56.01795 37.72372 3060 ft 173 kts 245°
2026-05-05 16:43 56.01411 37.70419 2914 ft 169 kts 255°
2026-05-05 16:44 56.01219 37.69136 2835 ft 166 kts 255°
2026-05-05 16:44 56.00926 37.67130 2714 ft 169 kts 256°
2026-05-05 16:44 56.00631 37.65110 2594 ft 170 kts 256°
2026-05-05 16:44 56.00331 37.63049 2443 ft 172 kts 256°
2026-05-05 16:45 56.00042 37.60993 2300 ft 169 kts 258°
2026-05-05 16:45 55.99867 37.59638 2209 ft 167 kts 257°
2026-05-05 16:45 55.99459 37.56826 2037 ft 164 kts 255°
2026-05-05 16:45 55.99164 37.54884 1866 ft 161 kts 255°
2026-05-05 16:46 55.98875 37.52978 1684 ft 158 kts 256°
2026-05-05 16:46 55.98591 37.51097 1457 ft 161 kts 256°
2026-05-05 16:46 55.98305 37.49152 1225 ft 163 kts 255°
2026-05-05 16:46 55.97991 37.47174 992 ft 167 kts 253°
2026-05-05 16:47 55.97686 37.45145 784 ft 169 kts 254°
2026-05-05 16:47 55.97383 37.43135 639 ft 159 kts 254°
2026-05-05 16:47 55.97143 37.41511 646 ft 86 kts 266°
2026-05-05 16:47 55.97090 37.40991 640 ft 37 kts 253°
2026-05-05 16:48 55.97014 37.40569 638 ft 34 kts 251°
2026-05-05 16:48 55.96959 37.40210 640 ft 19 kts 255°
2026-05-05 16:48 55.97010 37.40032 641 ft 18 kts 343°
2026-05-05 16:48 55.97041 37.40017 642 ft 1 kts 346°
2026-05-05 16:49 55.97046 37.40015 638 ft 1 kts 346°
2026-05-05 16:49 55.97051 37.40013 638 ft 2 kts 346°
2026-05-05 16:49 55.97107 37.39988 641 ft 14 kts 346°
2026-05-05 16:49 55.97238 37.39925 637 ft 25 kts 347°
2026-05-05 16:50 55.97340 37.39928 638 ft 14 kts 52°
2026-05-05 16:50 55.97375 37.40082 642 ft 13 kts 76°
2026-05-05 16:50 55.97397 37.40238 641 ft 13 kts 77°
2026-05-05 16:50 55.97417 37.40390 645 ft 12 kts 77°
2026-05-05 16:51 55.97439 37.40537 640 ft 12 kts 75°
2026-05-05 16:51 55.97462 37.40680 642 ft 12 kts 75°
2026-05-05 16:51 55.97481 37.40820 641 ft 12 kts 76°
2026-05-05 16:51 55.97502 37.40956 643 ft 11 kts 75°
2026-05-05 16:52 55.97523 37.41088 643 ft 11 kts 70°
2026-05-05 16:52 55.97582 37.41148 640 ft 11 kts 360°
2026-05-05 16:52 55.97633 37.41232 642 ft 11 kts 70°
2026-05-05 16:52 55.97651 37.41357 645 ft 10 kts 76°
2026-05-05 16:53 55.97669 37.41478 639 ft 10 kts 74°
2026-05-05 16:53 55.97714 37.41555 638 ft 10 kts
2026-05-05 16:53 55.97781 37.41532 638 ft 10 kts 345°
2026-05-05 16:53 55.97845 37.41511 638 ft 9 kts 13°
2026-05-05 16:54 55.97879 37.41606 645 ft 9 kts 75°
2026-05-05 16:54 55.97886 37.41658 638 ft 0 kts 77°